{"data":{"norad_id":55820,"intl_designator":"2023-029AA","name":"ONEWEB-0660","alt_names":[],"object_type":"PAYLOAD","status":"ACTIVE","operator":null,"country":"UK","launch_date":"2023-03-09","launch_site_code":"AFETR","launch_vehicle":null,"mission":null,"orbit_class":"UNKNOWN","rcs_meters":null,"size_class":null,"mass_kg":null,"dimensions":null,"purposes":["comms"],"wikipedia_slug":null,"has_3d_model":false,"image_url":null,"decayed_at":null,"tle_current":{"epoch":"2026-09-19T23:16:38.967744Z","epoch_age_seconds":64045,"freshness":"FRESH","line1":"1 55820U 23029AA  26262.96989546 -.00000176  00000+0 -50962-3 0  9990","line2":"2 55820  87.8900 270.7995 0002067  84.5653 275.5713 13.14504478171858","mean_motion":13.14504478,"eccentricity":0.0002067,"inclination_deg":87.89,"raan_deg":270.7995,"arg_perigee_deg":84.5653,"mean_anomaly_deg":275.5713,"bstar":-0.00050962,"rev_number":17185,"period_min":109.5469832245,"perigee_km":1204.2163041355,"apogee_km":1207.3514970358,"semimajor_km":7583.9209005856,"source":"CELESTRAK","updated_at":"2026-09-20T09:00:44.763962Z"}}}